Regional Weather Roundup
Issued by NWS

Home | Current Version | Previous Version | Text Only | Print | Product List | Glossary Off
Versions: 1 2 3 4 5 6 7 8 9 10 11 12 13 14 15 16 17 18 19 20 21 22 23 24 25 26 27 28 29 30 31 32 33 34 35 36 37 38 39 40 41 42 43 44 45 46 47 48 49 50

000
ASUS43 KMPX 180301
RWRMN
WEATHER ROUNDUP FOR MINNESOTA
NATIONAL WEATHER SERVICE TWIN CITIES/CHANHASSEN MN
1000 PM CDT FRI APR 17 2015


NOTE: "FAIR" INDICATES FEW OR NO CLOUDS BELOW 12,000 FEET WITH NO
SIGNIFICANT WEATHER AND/OR OBSTRUCTIONS TO VISIBILITY. N/A MEANS
CURRENT SKY AND/OR WEATHER CONDITIONS ARE NOT AVAILABLE.

MNZ060>063-068>070-180400-
   Twin Cities Metro

CITY           SKY/WX    TMP DP  RH WIND       PRES   REMARKS
TWIN CITIES    PTCLDY    65  26  23 CALM      30.03R
ST PAUL        PTCLDY    59  33  37 CALM      30.03R
CRYSTAL        PTCLDY    56  29  35 CALM      30.02R
BLAINE         CLEAR     55  34  44 CALM      30.03S
LAKEVILLE      MOCLDY    57  32  38 CALM      30.04R
EDEN PRAIRIE   PTCLDY    62  26  25 CALM      30.02R
SOUTH ST PAUL  PTCLDY    60  35  38 CALM      30.03R
LAKE ELMO      FAIR      54  34  47 CALM      30.04S
$$
MNZ001>005-007-008-013>017-022>024-027-028-180400-
   Northwest Minnesota

CITY           SKY/WX    TMP DP  RH WIND       PRES   REMARKS
BEMIDJI        CLEAR     53  23  31 N12       30.09R
HALLOCK        CLEAR     48  30  49 NE6       30.15R
ROSEAU         CLEAR     41  28  60 N6        30.13R
WARROAD        CLEAR     45  34  65 NE6       30.14R
THIEF RVR FALL CLEAR     50  27  40 N8        30.13R
CROOKSTON      CLEAR     52  28  40 NE8       30.12R
FOSSTON        CLEAR     48  19  32 N12       30.10R
DETROIT LAKES  PTCLDY    59  30  33 N7        30.08R
MOORHEAD       CLEAR     55  23  28 NE8       30.08R
PARK RAPIDS    PTCLDY    61  24  24 N10       30.05R
MAHNOMEN       FAIR      52  20  29 NE7       30.08R
$$
MNZ006-009>011-018-025>026-180400-
   North Central Minnesota

CITY           SKY/WX    TMP DP  RH WIND       PRES   REMARKS
BAUDETTE       CLEAR     47  30  51 NE9       30.12R
FLAG ISLAND    CLEAR     46  30  53 NE16      30.12S
INTL FALLS     CLEAR     48  29  47 N8        30.11R
WASKISH        CLEAR     48  28  46 CALM      30.10R
BIG FORK       CLEAR     52  18  25 CALM      30.08R
LONGVILLE      PTCLDY    57  27  30 N6        30.06R
GRAND RAPIDS   CLEAR     55  25  30 N10       30.06R
ORR            CLEAR     52  25  35 CALM      30.06R
COOK           CLEAR     54  23  30 N8        30.07R
WALKER         FAIR      58  24  27 N6        30.06R
$$
MNZ012-019>021-037-180400-
   Northeast Minnesota

CITY           SKY/WX    TMP DP  RH WIND       PRES   REMARKS
DULUTH         CLEAR     60  23  24 NW8       30.01R
ELY            CLEAR     55  19  24 N9G22     30.05R
HIBBING        CLEAR     57  20  23 N12       30.04R
EVELETH        CLEAR     57  19  23 N7        30.05R
DULUTH HARBOR  CLEAR     61  30  31 W8        30.00R
TWO HARBORS    CLEAR     61  34  36 NW5       29.99R
SILVER BAY     CLEAR     61  27  27 NW6       29.99R
GRAND MARAIS     N/A     58  24  27 N10G18    29.98R
G MARAIS ARPRT CLEAR     52  21  30 NW17G26   30.01R
$$
MNZ029>031-032-039>041-046>048-054>057-064-180400-
   West Central Minnesota

CITY           SKY/WX    TMP DP  RH WIND       PRES   REMARKS
FERGUS FALLS   PTCLDY    57  10  15 N8        30.05R
WHEATON        CLEAR     55  19  24 SW3       30.06S
MORRIS         CLEAR     55  21  26 W5        30.04S
ALEXANDRIA     PTCLDY    55  28  35 S3        30.06R
ELBOW LAKE     FAIR      56  40  54 CALM      30.04S
WADENA         PTCLDY    57  25  28 N9G18     30.05R
GLENWOOD       CLEAR     61  21  21 CALM      30.06S
APPLETON       PTCLDY    54  21  28 NW3       30.05S
BENSON         PTCLDY    52  27  37 CALM      30.06R
ORTONVILLE     PTCLDY    55  18  22 CALM      30.05S
MADISON        PTCLDY    55  16  21 CALM      30.06S
WILLMAR        FAIR      57  25  28 CALM      30.07R
$$
MNZ033>034-036-042>043-049>051-058-059-180400-
   Central Minnesota

CITY           SKY/WX    TMP DP  RH WIND       PRES   REMARKS
ST CLOUD       CLEAR     55  24  30 CALM      30.03S
SAUK CENTRE    FAIR      51  23  33 CALM      30.05S
PAYNESVILLE    CLEAR     47  26  43 CALM      30.06R
AITKIN         PTCLDY    46  32  57 SW3       30.01S
PINE RIVER     PTCLDY    57  34  41 N5        30.08R
BRAINERD       PTCLDY    54  24  31 SW3       30.03S
STAPLES        PTCLDY    52  21  30 SW3       30.03S
LONG PRAIRIE   FAIR      48  32  53 S3        30.05S
LITTLE FALLS   PTCLDY    46  28  49 CALM      30.04S
LITCHFIELD     PTCLDY    57  28  33 CALM      30.06R
BUFFALO        CLEAR     55  30  38 CALM      30.05R
MAPLE LAKE     CLEAR     56  27  32 NW3       30.05S
$$
MNZ037-044-045-052-053-180400-
   East Central Minnesota

CITY           SKY/WX    TMP DP  RH WIND       PRES   REMARKS
PRINCETON      CLEAR     52  32  46 CALM      30.04S
MORA           PTCLDY    48  34  57 CALM      30.05S
CAMBRIDGE      PTCLDY    55  36  47 CALM      30.02S
RUSH CITY      PTCLDY    51  31  47 CALM      30.03S
MOOSE LAKE     CLEAR     48  27  43 CALM      30.00S
HINCKLEY       FAIR      46  34  61 W5        30.02S
CLOQUET        CLEAR     54  19  26 W3        30.01S
MCGREGOR       PTCLDY    52  28  40 CALM      30.02S
$$
MNZ071>073-080-081-089-090-097-098-180400-
   Southwest Minnesota

CITY           SKY/WX    TMP DP  RH WIND       PRES   REMARKS
MONTEVIDEO     PTCLDY    55  18  22 CALM      30.06S
GRANITE FALLS  MOCLDY    51  17  27 W3        30.07S
CANBY          PTCLDY    50  23  35 SW3       30.07S
MARSHALL       PTCLDY    54  18  24 NW3       30.06S
REDWOOD FALLS  PTCLDY    64  20  18 N3        30.05R
OLIVIA         MOCLDY    54  19  26 CALM      30.05R
PIPESTONE      PTCLDY    57  16  19 NE6       30.06S
WORTHINGTON    PTCLDY    61  27  27 N8        30.06S
JACKSON        PTCLDY    59  28  31 VRB5      30.06S
TRACY          PTCLDY    59  19  20 NW5       30.07R
SLAYTON        PTCLDY    55  21  26 N7        30.07S
$$
MNZ065>067-074>077-082>085-091>093-180400-
   South Central Minnesota

CITY           SKY/WX    TMP DP  RH WIND       PRES   REMARKS
MANKATO        MOCLDY    64  34  32 N3        30.05R
NEW ULM        MOCLDY    61  27  27 CALM      30.05R
ST JAMES       PTCLDY    57  30  35 NW3       30.05S
FAIRMONT       PTCLDY    63  34  34 N5        30.03F
GLENCOE        MOCLDY    57  34  41 NW3       30.04R
FARIBAULT      MOCLDY    59  37  44 CALM      30.05R
OWATONNA       MOCLDY    54  36  50 CALM      30.05R
ALBERT LEA     PTCLDY    61  43  51 CALM      30.04R
$$
MNZ078>079-086>088-094>096-180400-
   Southeast Minnesota

CITY           SKY/WX    TMP DP  RH WIND       PRES   REMARKS
ROCHESTER      MOCLDY    62  42  47 N7        30.05R
RED WING       MOCLDY    55  37  50 CALM      30.02S
STANTON        MOCLDY    57  38  48 CALM      30.02S
DODGE CENTER   CLOUDY    64  41  42 N5        30.05R
WINONA         MOCLDY    63  45  51 CALM      30.02R
AUSTIN         MOCLDY    59  46  63 CALM      30.04R
PRESTON        MOCLDY    63  44  50 NW3       30.04S
$$
ABBREVIATIONS USED IN REMARKS
   TC - TEMPERATURES IN CELSIUS
  WCI - WIND CHILL INDEX
   HX - HEAT INDEX
  VSB - VISIBILITY
$$



USA.gov is the U.S. government's official web portal to all federal, state and local government web resources and services.